Петродворцовый

Россия / Санкт-Петербург и Ленинградская область     59°52′40″N   29°51′59″E
темп.,
°C
ветер,
м/с
пор.,
м/с
влажн.,
%
обл.,
%
осадки,
мм/ч
давл.,
гПа
погр.,
м
28 июля, ср
ср2800:00+20юв3367100 0.0 101434
03:00+19вюв4668100 0.0 101385
06:00+19вюв4570100 0.0 101294
09:00+21юв356499 0.0 1011156
12:00+21юз2376100 2.6 1010314
15:00+19ссв2290100 5.4 101065
18:00+21юв348399 0.7 1008216
21:00+20ююв01877 2.1 100620
29 июля, чт
чт2900:00+18ю119252 0.9 100517
03:00+18юз3392100 1.1 100455
06:00+17зюз598992 0.1 1004225
09:00+19зюз61083100 0.1 1003428
12:00+19зюз477985 0.1 1003343
15:00+20зсз587771 0.6 1002285
18:00+20з478154 1.3 1001187
21:00+19зюз510815 1.4 1001305
30 июля, пт
пт3000:00+18юз58876 0.0 1001233
03:00+17юз610875 0.0 1001322
06:00+16юз6118298 0.0 1000495
09:00+19юз7106790 0.0 10001127
12:00+20зюз795973 0.4 1000819
15:00+20юз811665 2.5 999926
18:00+20з356092 0.8 998747
21:00+18ююз7127115 1.1 997608
31 июля, сб
сб3100:00+17ююз71373100 0.1 996853
03:00+15ю91482100 0.6 994839
06:00+15ююз9138997 2.6 994922
09:00+17з10138330 4.0 9951056
12:00+18з11137644 0.5 9981158
15:00+19з8126820 0.5 9991022
18:00+19з69705 0.0 1000634
21:00+18зюз46760 0.0 1000168
1 августа, вс
вс100:00+17юз3476100 0.0 1000107
03:00+17ю3683100 0.0 1000170
06:00+16ю479211 3.1 998237
09:00+18юз58836 5.8 999697
12:00+20юз796653 0.5 999735
15:00+20юз91271100 1.5 999906
18:00+19зюз8137615 1.9 1000890
21:00+18зюз9157918 3.3 1001886